Weather observations for the past three days for
Lewisburg / Greenbrier
| Date | Time (edt) | Wind (kph) | Vis. (km) | Weather | Sky Cond. | Temperature (ºC) | Relative Humidity | Wind Chill (°C) | Heat Index (°C) | Pressure | Precipitation (cm) | ||||||
|---|---|---|---|---|---|---|---|---|---|---|---|---|---|---|---|---|---|
| Air | Dwpt | 6 hour | altimeter (cm) | sea level (mb) | 1 hr | 3 hr | 6 hr | ||||||||||
| Max. | Min. | ||||||||||||||||
| 10 | 01:35 | Calm | 16.09 | Fair | CLR | 8 | 6 | 87% | 76.05 | 0.0 | |||||||
| 10 | 01:15 | Calm | 16.09 | Fair | CLR | 8 | 6 | 87% | 76.05 | 0.0 | |||||||
| 10 | 00:55 | Calm | 16.09 | Fair | CLR | 8 | 6 | 87% | 76.05 | 0.0 | |||||||
| 10 | 00:35 | Calm | 16.09 | Fair | CLR | 8 | 6 | 87% | 76.07 | 0.0 | |||||||
| 10 | 00:15 | Calm | 16.09 | Fair | CLR | 9 | 6 | 82% | 76.05 | 0.0 | |||||||
| 09 | 23:55 | S 7 | 16.09 | Fair | CLR | 9 | 7 | 87% | 8 | 76.05 | 0.0 | ||||||
| 09 | 23:35 | Calm | 16.09 | Fair | CLR | 10 | 6 | 76% | 76.05 | 0.0 | |||||||
| 09 | 23:15 | Calm | 16.09 | Fair | CLR | 11 | 6 | 72% | 76.05 | 0.0 | |||||||
| 09 | 22:55 | Calm | 16.09 | Fair | CLR | 12 | 6 | 67% | 76.05 | 0.0 | |||||||
| 09 | 22:35 | SW 4 | 16.09 | Fair | CLR | 11 | 6 | 72% | 76.02 | 0.0 | |||||||
| 09 | 22:15 | Calm | 16.09 | Fair | CLR | 13 | 6 | 63% | 76 | 0.0 | |||||||
| 09 | 21:55 | SW 6 | 16.09 | Fair | CLR | 13 | 6 | 63% | 75.97 | 0.0 | |||||||
| 09 | 21:35 | SW 6 | 16.09 | Fair | CLR | 15 | 6 | 55% | 75.97 | 0.0 | |||||||
| 09 | 21:15 | W 7 | 16.09 | Fair | CLR | 15 | 6 | 55% | 75.95 | 0.0 | |||||||
| 09 | 20:55 | W 7 | 16.09 | Fair | CLR | 16 | 6 | 52% | 75.92 | 0.0 | |||||||
| 09 | 20:35 | W 7 | 16.09 | Fair | CLR | 15 | 6 | 55% | 75.9 | 0.0 | |||||||
| 09 | 20:15 | W 7 | 16.09 | Fair | CLR | 16 | 6 | 52% | 75.9 | 0.0 | |||||||
| 09 | 19:55 | W 7 | 16.09 | Fair | CLR | 17 | 6 | 20.4 | 17.2 | 49% | 75.87 | 0.0 | |||||
| 09 | 19:35 | W 9 | 16.09 | Fair | CLR | 18 | 6 | 46% | 75.84 | 0.0 | |||||||
| 09 | 19:15 | W 13 | 16.09 | Fair | CLR | 18 | 5 | 43% | 75.84 | 0.0 | |||||||
| 09 | 17:45 | W 17 G 30 | 16.09 | Mostly Cloudy | BKN070 | 19 | 6 | 43% | 75.84 | 0.0 | |||||||
| 09 | 16:45 | W 17 | 16.09 | Mostly Cloudy | BKN060 | 19 | 6 | 43% | 75.9 | 0.0 | |||||||
| 09 | 15:45 | SW 19 G 28 | 16.09 | Overcast | SCT065 OVC075 | 19 | 7 | 46% | 75.79 | 0.0 | |||||||
| 09 | 14:45 | SW 15 G 26 | 16.09 | Mostly Cloudy | SCT050 SCT075 BKN095 | 19 | 7 | 46% | 75.82 | 0.0 | |||||||
| 09 | 13:45 | W 7 | 16.09 | Mostly Cloudy | BKN050 BKN065 BKN100 | 18 | 8 | 52% | 75.84 | 0.0 | |||||||
| 09 | 12:45 | W 11 | 16.09 | Overcast | SCT045 BKN055 OVC110 | 16 | 7 | 55% | 75.87 | 0.0 | |||||||
| 09 | 11:45 | SW 11 | 16.09 | Mostly Cloudy | BKN055 | 17 | 8 | 56% | 75.87 | 0.0 | |||||||
| 09 | 10:45 | SW 17 | 16.09 | Fair | CLR | 16 | 8 | 59% | 75.9 | 0.0 | |||||||
| 09 | 09:50 | SW 9 | 16.09 | Fair | CLR | 13 | 8 | 72% | 75.9 | 0.0 | |||||||
| 09 | 08:55 | Calm | 16.09 | Fair | CLR | 9 | 5 | 76% | 75.95 | 0.0 | |||||||
| 09 | 08:35 | NW 4 | 16.09 | Fair | CLR | 7 | 5 | 87% | 75.95 | 0.0 | |||||||
| 09 | 08:15 | Calm | 16.09 | Fair | CLR | 6 | 5 | 93% | 75.95 | 0.0 | |||||||
| 09 | 07:55 | Calm | 16.09 | Fair | CLR | 6 | 5 | 6.9 | 3 | 93% | 75.95 | 0.0 | |||||
| 09 | 07:35 | Calm | 16.09 | Fair | CLR | 5 | 4 | 93% | 75.95 | 0.0 | |||||||
| 09 | 07:15 | E 2 | 16.09 | Fair | CLR | 4 | 3 | 93% | 75.95 | 0.0 | |||||||
| 09 | 06:55 | N 6 | 16.09 | Fair | CLR | 3 | 3 | 100% | 75.92 | 0.0 | |||||||
| 09 | 06:35 | N 6 | 16.09 | Fair | CLR | 4 | 3 | 93% | 75.92 | 0.0 | |||||||
| 09 | 06:15 | NE 6 | 16.09 | Fair | CLR | 4 | 3 | 93% | 75.9 | 0.0 | |||||||
| 09 | 05:55 | N 4 | 16.09 | Fair | CLR | 4 | 3 | 93% | 75.9 | 0.0 | |||||||
| 09 | 05:35 | Calm | 16.09 | Fair | CLR | 5 | 3 | 87% | 75.92 | 0.0 | |||||||
| 09 | 05:15 | N 4 | 16.09 | Fair | CLR | 5 | 3 | 87% | 75.92 | 0.0 | |||||||
| 09 | 04:55 | N 4 | 16.09 | Fair | CLR | 4 | 3 | 93% | 75.92 | 0.0 | |||||||
| 09 | 04:35 | NE 6 | 16.09 | Fair | CLR | 5 | 3 | 87% | 75.95 | 0.0 | |||||||
| 09 | 04:15 | N 7 | 16.09 | Fair | CLR | 5 | 3 | 87% | 4 | 75.95 | 0.0 | ||||||
| 09 | 03:55 | N 6 | 16.09 | Fair | CLR | 6 | 3 | 81% | 75.95 | 0.0 | |||||||
| 09 | 03:35 | N 7 | 16.09 | Fair | CLR | 6 | 3 | 81% | 5 | 75.95 | 0.0 | ||||||
| 09 | 03:15 | N 7 | 16.09 | A Few Clouds | FEW050 | 6 | 3 | 81% | 5 | 75.95 | 0.0 | ||||||
| 09 | 02:55 | N 7 | 16.09 | A Few Clouds | FEW050 | 6 | 3 | 81% | 5 | 75.97 | 0.0 | ||||||
| 09 | 02:35 | N 6 | 16.09 | A Few Clouds | FEW050 FEW090 | 7 | 3 | 76% | 75.97 | 0.0 | |||||||
| 09 | 02:15 | N 7 | 16.09 | Mostly Cloudy | SCT055 BKN090 | 7 | 3 | 76% | 6 | 76 | 0.0 | ||||||
| 09 | 01:55 | N 6 | 16.09 | Partly Cloudy | SCT055 | 7 | 3 | 16.7 | 5.9 | 76% | 76.02 | 0.0 | |||||
| 09 | 01:35 | Calm | 16.09 | A Few Clouds | FEW055 | 6 | 3 | 81% | 76 | 0.0 | |||||||
| 09 | 01:15 | NE 6 | 16.09 | Fair | CLR | 8 | 2 | 66% | 76.02 | 0.0 | |||||||
| 09 | 00:55 | SW 4 | 16.09 | Fair | CLR | 10 | 2 | 58% | 76.02 | 0.0 | |||||||
| 09 | 00:35 | SW 7 | 16.09 | Fair | CLR | 10 | 2 | 58% | 9 | 76 | 0.0 | ||||||
| 09 | 00:15 | S 9 | 16.09 | Fair | CLR | 11 | 1 | 50% | 76 | 0.0 | |||||||
| 08 | 23:55 | S 9 | 16.09 | Fair | CLR | 11 | 1 | 50% | 76.02 | 0.0 | |||||||
| 08 | 23:35 | SW 6 | 16.09 | Fair | CLR | 11 | 2 | 54% | 76.02 | 0.0 | |||||||
| 08 | 23:15 | S 9 | 16.09 | Fair | CLR | 11 | 1 | 50% | 76 | 0.0 | |||||||
| 08 | 22:55 | S 6 | 16.09 | Fair | CLR | 12 | 2 | 51% | 76.02 | 0.0 | |||||||
| 08 | 22:35 | S 9 | 16.09 | Fair | CLR | 11 | 2 | 54% | 76.02 | 0.0 | |||||||
| 08 | 22:15 | S 7 | 16.09 | Fair | CLR | 12 | 2 | 51% | 76.02 | 0.0 | |||||||
| 08 | 21:55 | S 9 | 16.09 | Fair | CLR | 13 | 2 | 47% | 76.02 | 0.0 | |||||||
| 08 | 21:35 | S 7 | 16.09 | Fair | CLR | 11 | 3 | 58% | 76 | 0.0 | |||||||
| 08 | 21:15 | S 6 | 16.09 | Fair | CLR | 12 | 2 | 51% | 75.97 | 0.0 | |||||||
| 08 | 20:55 | S 4 | 16.09 | Fair | CLR | 13 | 2 | 47% | 75.97 | 0.0 | |||||||
| 08 | 20:15 | S 6 | 16.09 | Fair | CLR | 16 | 1 | 36% | 75.97 | 0.0 | |||||||
| 08 | 19:55 | S 9 | 16.09 | Fair | CLR | 17 | 1 | 18.7 | 15.2 | 34% | 76 | 0.0 | |||||
| 08 | 19:35 | S 17 | 16.09 | Fair | CLR | 17 | 1 | 34% | 75.97 | 0.0 | |||||||
| 08 | 19:15 | SW 15 | 16.09 | Fair | CLR | 18 | 0 | 30% | 75.97 | 0.0 | |||||||
| 08 | 18:45 | S 9 | 16.09 | Fair | CLR | 18 | 0 | 30% | 75.97 | 0.0 | |||||||
| 08 | 17:45 | Calm | 16.09 | Partly Cloudy | SCT070 | 18 | 0 | 30% | 75.97 | 0.0 | |||||||
| 08 | 16:45 | W 7 G 31 | 16.09 | Partly Cloudy | SCT075 | 18 | 1 | 32% | 76.02 | 0.0 | |||||||
| 08 | 15:45 | Calm | 16.09 | Partly Cloudy | SCT080 | 17 | 0 | 32% | 76.07 | 0.0 | |||||||
| 08 | 14:45 | SW 19 G 30 | 16.09 | Fair | CLR | 17 | 1 | 34% | 76.15 | 0.0 | |||||||
| 08 | 13:51 | S 17 G 26 | 16.09 | Fair | CLR | 16 | 1 | 36% | 76.2 | 0.0 | |||||||
| 08 | 12:45 | SW 9 | 16.09 | Fair | CLR | 14 | 1 | 41% | 76.28 | 0.0 | |||||||
| 08 | 11:45 | SW 20 G 30 | 16.09 | Fair | CLR | 14 | 0 | 39% | 76.3 | 0.0 | |||||||
| 08 | 10:50 | SW 11 | 16.09 | Fair | CLR | 12 | 1 | 47% | 76.35 | 0.0 | |||||||
| 08 | 09:47 | SW 15 | 16.09 | Fair | CLR | 9 | 2 | 62% | 7 | 76.33 | 0.0 | ||||||
| 08 | 08:55 | SW 13 | 16.09 | Fair | CLR | 7 | 2 | 71% | 5 | 76.35 | 0.0 | ||||||
| 08 | 08:35 | SW 11 | 16.09 | Fair | CLR | 6 | 2 | 76% | 4 | 76.35 | 0.0 | ||||||
| 08 | 08:15 | SW 7 | 16.09 | Fair | CLR | 5 | 2 | 81% | 4 | 76.33 | 0.0 | ||||||
| 08 | 07:55 | Calm | 16.09 | Fair | CLR | 3 | 2 | 3.8 | -0.4 | 93% | 76.33 | 0.0 | |||||
| 08 | 07:35 | Calm | 16.09 | Fair | CLR | 1 | 0 | 93% | 76.3 | 0.0 | |||||||
| 08 | 07:15 | N 2 | 16.09 | Fair | CLR | 0 | -1 | 93% | 76.3 | 0.0 | |||||||
| 08 | 06:55 | Calm | 16.09 | Fair | CLR | 2 | 0 | 87% | 76.3 | 0.0 | |||||||
| 08 | 06:35 | SW 4 | 16.09 | Fair | CLR | 1 | 0 | 93% | 76.28 | 0.0 | |||||||
| 08 | 06:15 | SW 6 | 16.09 | Fair | CLR | 1 | 0 | 93% | 76.25 | 0.0 | |||||||
| 08 | 05:55 | S 6 | 16.09 | Fair | CLR | 0 | -1 | 93% | 76.23 | 0.0 | |||||||
| 08 | 05:35 | S 6 | 16.09 | Fair | CLR | 1 | 0 | 93% | 76.2 | 0.0 | |||||||
| 08 | 05:15 | S 6 | 16.09 | Fair | CLR | 1 | 0 | 93% | 76.2 | 0.0 | |||||||
| 08 | 04:55 | S 7 | 16.09 | Fair | CLR | 2 | 0 | 87% | 0 | 76.2 | 0.0 | ||||||
| 08 | 04:35 | S 7 | 16.09 | Fair | CLR | 2 | 0 | 87% | 0 | 76.17 | 0.0 | ||||||
| 08 | 04:15 | SW 6 | 16.09 | Fair | CLR | 2 | 0 | 87% | 76.17 | 0.0 | |||||||
| 08 | 03:55 | S 7 | 16.09 | Fair | CLR | 1 | 0 | 93% | -1 | 76.17 | 0.0 | ||||||
| 08 | 03:35 | S 6 | 16.09 | Fair | CLR | 2 | 0 | 87% | 76.17 | 0.0 | |||||||
| 08 | 03:15 | S 7 | 16.09 | Fair | CLR | 3 | 0 | 81% | 1 | 76.17 | 0.0 | ||||||
| 08 | 02:55 | S 6 | 16.09 | Fair | CLR | 2 | 0 | 87% | 76.17 | 0.0 | |||||||
| 08 | 02:35 | S 6 | 16.09 | Fair | CLR | 3 | 0 | 81% | 76.17 | 0.0 | |||||||
| 08 | 02:15 | S 6 | 16.09 | Fair | CLR | 3 | 0 | 81% | 76.17 | 0.0 | |||||||
| 08 | 01:55 | S 6 | 16.09 | Fair | CLR | 3 | 0 | 12.1 | 3.1 | 81% | 76.15 | 0.0 | |||||
| 08 | 01:35 | Vrbl 4 | 16.09 | Fair | CLR | 4 | 0 | 75% | 76.15 | 0.0 | |||||||
| 08 | 01:15 | N 7 | 16.09 | Fair | CLR | 6 | -1 | 61% | 5 | 76.15 | 0.0 | ||||||
| 08 | 00:55 | NW 7 | 16.09 | Fair | CLR | 6 | -1 | 61% | 5 | 76.15 | 0.0 | ||||||
| 08 | 00:35 | NW 11 | 16.09 | Fair | CLR | 6 | 0 | 66% | 4 | 76.15 | 0.0 | ||||||
| 08 | 00:15 | NW 7 | 16.09 | Fair | CLR | 5 | 2 | 81% | 4 | 76.12 | 0.0 | ||||||
| 07 | 23:55 | N 4 | 16.09 | Fair | CLR | 6 | 1 | 71% | 76.12 | 0.0 | |||||||
| 07 | 23:35 | Vrbl 2 | 16.09 | Fair | CLR | 7 | 1 | 66% | 76.12 | 0.0 | |||||||
| 07 | 23:15 | NW 6 | 16.09 | Fair | CLR | 8 | 0 | 57% | 76.1 | 0.0 | |||||||
| 07 | 22:55 | NW 9 | 16.09 | Fair | CLR | 9 | 0 | 54% | 8 | 76.1 | 0.0 | ||||||
| 07 | 22:35 | NW 11 | 16.09 | Fair | CLR | 9 | 0 | 54% | 8 | 76.07 | 0.0 | ||||||
| 07 | 22:15 | NW 9 | 16.09 | Fair | CLR | 9 | 1 | 58% | 8 | 76.05 | 0.0 | ||||||
| 07 | 21:55 | NW 7 | 16.09 | Fair | CLR | 9 | 1 | 58% | 8 | 76.05 | 0.0 | ||||||
| 07 | 21:35 | NW 9 | 16.09 | Fair | CLR | 10 | 1 | 54% | 9 | 76.02 | 0.0 | ||||||
| 07 | 21:15 | NW 17 | 16.09 | Fair | CLR | 10 | 1 | 54% | 8 | 76 | 0.0 | ||||||
| 07 | 20:55 | NW 9 | 16.09 | A Few Clouds | FEW060 | 10 | 1 | 54% | 9 | 76 | 0.0 | ||||||
| 07 | 20:35 | NW 9 | 16.09 | Partly Cloudy | SCT060 | 11 | 1 | 50% | 75.97 | 0.0 | |||||||
| 07 | 20:15 | NW 9 | 16.09 | Partly Cloudy | SCT060 | 11 | 1 | 50% | 75.95 | 0.0 | |||||||
| 07 | 19:55 | W 13 | 16.09 | Fair | CLR | 12 | 1 | 15.2 | 12.1 | 47% | 75.95 | 0.0 | |||||
| 07 | 19:35 | W 20 | 16.09 | Fair | CLR | 13 | 1 | 44% | 75.95 | 0.0 | |||||||
| 07 | 19:15 | W 15 | 16.09 | Fair | CLR | 13 | 2 | 47% | 75.92 | 0.0 | |||||||
| 07 | 18:45 | W 20 G 35 | 16.09 | Partly Cloudy | SCT050 | 14 | 2 | 44% | 75.9 | 0.0 | |||||||
| 07 | 17:45 | NW 13 G 31 | 16.09 | Mostly Cloudy | BKN049 | 14 | 2 | 44% | 75.84 | 0.0 | |||||||
| 07 | 16:45 | W 22 G 33 | 16.09 | Partly Cloudy | SCT049 | 15 | 3 | 45% | 75.82 | 0.0 | |||||||
| 07 | 15:45 | W 207 G 33 | 16.09 | Mostly Cloudy and Windy | BKN040 | 14 | 4 | 51% | 75.84 | 0.0 | |||||||
| 07 | 14:45 | NW 30 G 37 | 16.09 | Overcast | OVC041 | 14 | 5 | 55% | 75.87 | 0.0 | |||||||
| 07 | 13:45 | W 15 | 16.09 | Overcast | OVC043 | 13 | 4 | 55% | 75.87 | 0.0 | |||||||
| 07 | 12:45 | W 11 | 16.09 | Overcast | OVC041 | 13 | 5 | 59% | 75.92 | 0.0 | |||||||
| 07 | 11:55 | W 7 | 16.09 | Overcast | OVC033 | 12 | 4 | 58% | 75.95 | 0.0 | |||||||
| 07 | 10:45 | N 7 | 16.09 | Overcast | SCT024 OVC031 | 11 | 4 | 62% | 75.97 | 0.0 | |||||||
| 07 | 09:51 | N 7 | 16.09 | Overcast | OVC027 | 9 | 6 | 82% | 8 | 76.02 | 0.0 | ||||||
| 07 | 08:51 | NW 7 | 16.09 | Overcast | BKN018 OVC027 | 9 | 6 | 82% | 8 | 76.05 | 0.0 | ||||||
| 07 | 08:35 | N 11 | 16.09 | Overcast | OVC016 | 9 | 6 | 82% | 8 | 76.02 | 0.0 | ||||||
| 07 | 08:15 | N 13 | 16.09 | Overcast | OVC016 | 9 | 7 | 87% | 7 | 76 | 0.0 | ||||||
| 07 | 07:55 | NW 11 | 16.09 | Overcast | OVC014 | 9 | 8 | 11.1 | 9.2 | 94% | 8 | 76 | 0.0 | ||||
| 07 | 07:35 | W 13 | 16.09 | Overcast | OVC014 | 9 | 9 | 100% | 7 | 76 | 0.0 | ||||||
| 07 | 07:15 | W 7 | 16.09 | Overcast | SCT006 OVC014 | 9 | 9 | 100% | 8 | 75.95 | 0.0 | ||||||
| 07 | 06:55 | W 9 | 16.09 | Overcast | BKN006 OVC014 | 9 | 9 | 100% | 8 | 75.95 | 0.0 | ||||||
| 07 | 06:35 | W 11 | 16.09 | Overcast | BKN017 OVC022 | 9 | 9 | 100% | 8 | 75.95 | 0.0 | ||||||
| 07 | 06:15 | W 11 | 16.09 | Overcast | BKN023 OVC032 | 10 | 9 | 94% | 9 | 75.92 | 0.0 | ||||||
| 07 | 05:55 | W 11 | 16.09 | Overcast | FEW025 BKN032 OVC055 | 10 | 9 | 94% | 9 | 75.92 | 0.0 | ||||||
| 07 | 05:35 | W 7 | 16.09 | Overcast | BKN032 OVC055 | 10 | 9 | 94% | 9 | 75.92 | 0.0 | ||||||
| 07 | 05:15 | W 9 | 16.09 | Overcast | SCT019 BKN032 OVC055 | 10 | 9 | 94% | 9 | 75.9 | 0.0 | ||||||
| 07 | 04:55 | W 11 | 16.09 | Overcast | BKN021 OVC030 | 10 | 9 | 94% | 9 | 75.95 | 0.0 | ||||||
| 07 | 04:35 | W 11 | 16.09 | Overcast | BKN019 OVC030 | 10 | 9 | 94% | 9 | 75.92 | 0.0 | ||||||
| 07 | 04:15 | SW 13 | 16.09 | Overcast | OVC014 | 10 | 9 | 94% | 8 | 75.95 | 0.0 | ||||||
| 07 | 03:55 | W 7 | 16.09 | Overcast | BKN014 OVC031 | 11 | 9 | 88% | 75.92 | 0.0 | |||||||
| 07 | 03:35 | SW 9 | 16.09 | Overcast | SCT016 BKN027 OVC034 | 11 | 10 | 94% | 75.95 | 0.0 | |||||||
| 07 | 03:15 | SW 9 | 16.09 | Overcast | OVC027 | 11 | 10 | 94% | 75.95 | 0.0 | |||||||
| 07 | 02:55 | SW 9 | 16.09 | Mostly Cloudy | BKN023 BKN030 | 11 | 10 | 94% | 75.95 | 0.0 | |||||||
| 07 | 02:35 | W 11 | 16.09 | Mostly Cloudy | FEW024 BKN033 BKN100 | 10 | 10 | 100% | 9 | 75.97 | 0.0 | ||||||
| 07 | 02:15 | W 11 | 16.09 | Overcast | BKN024 OVC033 | 11 | 10 | 94% | 75.92 | 0.0 | |||||||
| Date | Time (edt) | Wind (kph) | Vis. (km) | Weather | Sky Cond. | Air | Dwpt | Max. | Min. | Relative Humidity | Wind Chill (°C) | Heat Index (°C) | altimeter (cm) | sea level (mb) | 1 hr | 3 hr | 6 hr |
| 6 hour | |||||||||||||||||
| Temperature (ºC) | Pressure | Precipitation (cm) | |||||||||||||||